[Date Prev][Date Next][Thread Prev][Thread Next][Date Index][Thread Index]

[jamsat-news:1706] Re: Idefixが予定より早くON!


皆さま、

軌道要素について訂正します。Idefixのホームページから
カット&ペーストしたのですが、スペースの入り具合が
まずい様です。次のもので試してみてください。

IDEFIX/ARIANE 42P
1 27422U 02021B   02128.83441051  .00000121  00000-0  67154-4 0   139
2 27422  98.7182 203.9220 0010802 268.7820  91.2100 14.27707764   688

武安 / JA6XKQ
ja6xkq@jamsat.or.jp